CAPE
1917 2082 2000 2677 1779 1584 2140 2599 1224 2465 2846 3089 3010 2381 3222 3183 2632 2701 2813 3263 3097 2522
1997 1877 1772 2399 2612 2244 3003 1835 440 585 1260 2411 2680 2718 3372 2186 2623 2216 2642 2927 3060 3207
1983 2011 2313 2558 2700 2536 1885 1524 740 713 656 604 690 2854 3144 2237 2281 3009 2823 2248 2302 2711
2181 2217 2237 2378 2656 2803 2753 2056 788 679 358 284 567 2032 2635 2331 2292 2394 2464 2926 2779 2793
2225 2039 2186 2627 2648 2889 2983 2914 2744 1478 885 586 999 2082 2473 2205 1541 2119 2827 2491 2564 2990
2251 1632 1999 2411 2749 2854 3031 2908 2795 2467 2864 2386 2227 2342 2204 2351 1912 1964 2120 2341 2335 2485
2109 1926 1733 2046 3123 2838 3246 3157 2573 2584 2729 2643 2485 2185 2393 2172 2493 2516 2598 2441 2427 2328
2407 2881 3026 3665 3699 3428 3493 3074 3209 2592 2351 2678 2482 1991 2354 2430 1995 2417 2316 2354 2370 1920
4114 3660 3256 3518 3499 3535 3303 3256 2945 3076 2856 2665 2361 1646 1291 1764 2152 1785 1858 1940 1719 1773
4340 3969 3928 3770 3763 3666 3627 3367 3122 3071 2991 2805 2480 2118 1548 1203 1387 1748 1764 1473 1804 1828
4382 3874 3732 3784 3233 2982 3390 3188 2965 2548 2705 2756 2741 2118 1581 1321 1108 1698 1402 1548 2024 1950
3759 3356 3395 3186 2937 2731 3055 3024 2832 2416 2076 2002 2044 1141 1037 1004 1496 1553 1795 1557 1280 1423
2889 2729 2698 2627 2696 2759 2386 2683 2366 1973 1687 1237 1281 1100 944 852 901 789 1148 1080 1117 502
2508 2373 2238 2300 2250 2246 1794 1715 1642 1179 870 1106 1230 1033 751 593 610 589 364 237 234 213
CIN
-13 -6 -10 -3 -8 -15 -12 -9 -21 -23 -11 -5 -10 -28 -9 -5 -17 -20 -24 -6 -11 -24
-9 -20 -10 -15 -15 -11 -4 -94 -3 -53 -56 -13 -11 -14 -6 -10 -22 -32 -16 -18 -14 -14
-6 -12 -8 -8 -9 -11 -21 -33 -28 -135 -50 -31 -7 -10 -10 -10 -14 -12 -12 -10 -24 -23
-10 -14 -12 -6 -3 -8 -14 -32 -10 -42 -34 -276 -182 -14 -13 -23 -25 -13 -16 -11 -16 -13
-33 -17 -4 -2 -1 -4 -13 -22 -15 -72 -28 -156 -126 -17 -19 -17 -32 -24 -5 -11 -14 -3
-38 -40 -14 -7 -9 -5 -4 -12 -17 -19 -7 -11 -11 -19 -34 -19 -36 -19 -20 -19 -18 -13
-57 -59 -44 -14 -18 -14 -10 -4 -14 -12 -6 -7 -7 -17 -14 -13 -8 -8 -3 -14 -17 -16
-47 -25 -14 -15 -15 -15 -12 -6 -4 -20 -14 -7 -3 -1 -5 -7 -22 -13 -9 -10 -18 -17
-18 -28 -26 -14 -20 -12 -15 -7 -15 -2 -6 -6 -0 -1 -6 -36 -30 -38 -22 -14 -27 -29
-9 -9 -7 -5 -6 -3 -3 -4 -4 -2 -1 -1 -14 -10 -26 -21 -73 -39 -33 -36 -26 -20
-3 -5 -5 -2 -5 -7 -3 -2 -2 -11 -6 -2 -2 -5 -26 -38 -64 -50 -42 -21 -8 -8
-5 -11 -10 -14 -19 -22 -9 -4 -3 -3 -4 -3 -6 -42 -31 -34 -18 -2 -2 -8 -26 -13
-14 -9 -5 -10 -6 -1 -3 -0 -0 -0 -0 -3 -0 -4 -17 -10 -12 -5 -4 -20 -8 -4
-21 -21 -21 -7 -5 -1 -8 -1 -3 -9 -10 -0 -0 -0 -2 -5 -1 -0 -13 -0 -4 -2
Wind_Speed
3 5 8 8 10 13 12 17 27 12 10 11 12 10 11 21 22 17 15 15 15 13
5 3 8 9 11 13 15 22 23 26 17 10 10 10 14 12 18 21 21 17 14 14
8 4 4 4 8 10 11 27 27 17 4 13 10 9 9 8 12 19 19 19 15 17
10 2 1 4 3 6 9 24 22 17 16 20 5 6 10 6 7 14 17 20 20 20
10 16 3 3 3 6 10 10 17 20 16 8 5 5 13 10 8 13 16 18 17 20
6 6 3 4 8 9 10 12 10 13 14 13 10 11 15 14 13 12 14 19 21 20
6 6 6 5 10 10 8 10 12 11 15 14 12 12 13 15 17 18 19 20 22 22
11 12 7 7 10 8 8 10 9 12 13 17 16 17 17 17 16 20 19 19 23 23
13 14 8 9 7 7 9 12 11 10 12 13 16 14 15 21 21 22 23 22 24 25
12 11 9 8 9 7 8 10 10 11 11 9 9 8 17 20 20 24 23 22 23 24
11 10 10 11 9 9 11 10 10 10 10 9 8 15 18 16 16 14 16 20 24 22
17 18 18 18 15 14 13 12 12 9 7 5 3 15 13 12 11 10 12 17 18 21
19 18 17 17 17 16 15 13 13 13 16 14 18 20 20 18 16 14 17 19 27 34
16 16 19 19 17 17 18 19 18 20 18 19 24 22 26 25 23 23 24 25 27 30
Wind_Direction
332 222 229 236 252 267 253 247 230 222 228 204 241 251 237 251 242 235 247 250 240 236
301 287 233 226 245 239 244 258 254 221 192 212 219 249 269 262 254 233 245 245 258 254
309 297 223 235 245 263 259 266 273 298 302 218 190 250 261 280 247 244 245 251 254 263
288 124 195 159 236 253 252 282 290 302 272 269 192 268 280 269 219 232 245 241 245 253
346 201 313 355 344 269 269 267 289 300 307 301 251 284 275 279 255 260 265 265 256 256
38 105 160 312 323 298 298 277 272 291 296 299 293 267 269 279 276 261 264 269 275 272
279 274 279 277 294 285 290 287 296 293 287 290 289 293 283 280 273 271 265 262 269 276
277 271 260 249 267 284 271 271 266 271 284 281 283 287 289 281 280 275 273 268 268 271
248 267 261 256 271 286 276 285 283 280 269 270 271 291 304 299 294 290 286 282 275 266
243 250 251 262 282 291 284 287 294 297 303 307 306 291 272 270 266 277 287 289 287 288
244 247 260 276 284 295 293 298 298 309 323 321 314 309 300 290 290 283 290 286 287 293
250 253 256 259 263 271 280 291 305 304 303 304 319 300 306 305 306 301 290 297 292 289
254 256 257 259 262 266 266 274 274 277 279 276 283 284 291 298 315 312 296 282 288 278
269 261 256 256 262 277 281 279 276 275 280 281 283 285 286 286 298 299 294 293 290 289